Gillette, WY (82716)

4:28 PM MST on February 23, 2017 (GMT -0700)
McCann Heights, central Gillette | | Change Station
Active Advisory: Winter Weather Advisory

Elev 4590 ft 44.28 °N, 105.50 °W | Updated 25 seconds ago

Light Snow
Light Snow Mist
23.8 °F
Feels Like 16 °F
N
7.0
Wind Variable Wind from NNW

Today
High -- | Low -- °F
--% Chance of Precip.
Yesterday
High -- | Low -- °F
Precip. -- in
Pressure 29.86 in
Visibility 2.0 miles
Clouds Few 900 ft
Overcast 1500 ft
Windchill 16 °F
Dew Point 20 °F
Humidity 86%
Rainfall 0.00 in
Snow Depth Not available.
6:48 AM 5:42 PM
Waning Crescent, 8% visible
SPECI KGCC 232325Z AUTO 05013KT 2SM -SN BR FEW009 OVC015 M04/M06 A2986 RMK AO2 VIS 1 1/4V2 1/2 SNB2259 P0000 T10391056 $
Pressure 29.86 in
Visibility 2.0 miles
Clouds Few 900 ft
Overcast 1500 ft
Windchill 16 °F
Dew Point 20 °F
Humidity 86%
Rainfall 0.00 in
Snow Depth Not available.
6:48 AM 5:42 PM
Waning Crescent, 8% visible
SPECI KGCC 232325Z AUTO 05013KT 2SM -SN BR FEW009 OVC015 M04/M06 A2986 RMK AO2 VIS 1 1/4V2 1/2 SNB2259 P0000 T10391056 $

Get Your Daily Forecast Email!

Thanks for signing up!

Be on the lookout for a verification email in your inbox.

You'll start receiving the daily forecast at 8 AM.

×

10-Day Weather Forecast

Almanac

Astronomy

Feb. 23, 2017 Rise Set
Actual Time
Civil Twilight
Nautical Twilight
Astronomical Twilight
Moon
Length of Visible Light
Length of Day
Tomorrow will be .
, % of the Moon is Illuminated

Today's Extremes

State Highs State Lows

Community

WunderPhotos

Upload Photos

1,962,540 photos uploaded!

WunderBlog® & News

Nearby

Air Quality

  Air Quality AQ Index Pollutant
Not available.

Snow Depth

Station Depth Elevation

Earthquake Activity

City Distance Mag. Time & Date
Minimum magnitude displayed is 2.5.

Coastal Water Temperatures

Place Temperature

Stations

Nearby Weather Stations

Station Location Temp. Windchill Dew Point Humidity Wind Precip. Elev Updated Type
                   

Watches & Warnings

Winter Weather Advisory
Issued: 2:21 PM MST Feb. 23, 2017 – National Weather Service

... Winter Weather Advisory remains in effect until 5 am MST
Friday...

* snow will develop this morning and continue through this
evening, before tapering off late tonight.

* Additional snow accumulations of 1 to 3 inches are expected.

* Look for reduced visibilities at times.

* Plan on slippery Road conditions.

Precautionary/preparedness actions...

A Winter Weather Advisory for snow means periods of snow will
cause primarily travel difficulties. Be prepared for snow covered
roads and limited visibilities... and use caution while driving.
The latest Road conditions for the state you are calling from can
be obtained by calling 5 1 1.